Tracking 19854 objects as of 22-Sep-2019
HD Live streaming from Space Station
objects crossing your sky now

BREEZE-M R/B

Track BREEZE-M R/B now!


NORAD ID: 39488
Int'l Code: 2013-077B
Perigee: 36,775.6 km
Apogee: 41,404.6 km
Inclination: 4.2 °
Period: 1,607.8 minutes
Semi major axis: 45461 km
RCS: Unknown
Launch date: December 26, 2013
Source: Commonwealth of Independent States (former USSR) (CIS)
Launch site: TYURATAM MISSILE AND SPACE COMPLEX (TTMTR)

Note: This is a ROCKET BODY
aabbcc
Your satellite tracking list
Your tracking list is empty




NASA's NSSDC Master Catalog

Two Line Element Set (TLE):
1 39488U 13077B   19264.32545918 -.00000158  00000-0  00000+0 0  9993
2 39488   4.1817  73.1978 0509116 132.8641 231.8763  0.89566061 18849
Source of the keplerian elements: AFSPC